Wind_Speed
2 3 5 6 5 5 4 1 5 2 1 2 5 7 9 11 7 9 9 8 7 7 14 17 18 15 11 11 9 10 9 10 10 6 3 2 3 2 4 4 7 6 4 3
3 4 6 8 7 6 2 1 2 2 5 3 6 12 12 13 12 10 11 9 8 6 7 12 18 18 18 15 13 12 10 10 9 6 1 4 9 12 13 15 14 11 8 6
6 4 12 5 3 5 3 4 2 1 3 2 3 9 5 7 16 13 7 5 2 14 11 7 15 18 17 16 14 12 11 10 10 7 6 12 13 16 17 15 14 12 10 9
5 5 7 4 4 4 2 4 4 1 3 3 4 5 6 5 4 6 7 8 10 11 8 8 14 17 13 12 10 11 12 12 12 10 12 11 15 16 16 17 13 12 11 10
7 7 5 7 4 6 3 1 7 3 2 3 3 2 7 5 6 5 7 9 8 8 9 8 14 14 11 10 11 11 12 13 13 13 14 15 17 16 14 13 11 10 10 11
3 3 5 6 3 5 4 3 4 3 3 2 9 7 5 3 5 4 6 7 9 9 9 12 15 13 11 9 9 10 12 14 13 13 13 14 13 12 11 10 10 10 10 12
3 3 1 2 5 2 5 4 2 1 2 5 2 4 7 4 3 7 10 8 8 8 8 8 10 10 9 8 7 8 10 14 12 13 13 13 13 13 13 11 11 10 11 13
6 3 7 5 6 6 7 6 4 6 4 3 1 5 5 5 2 7 9 10 9 9 7 7 11 11 9 7 7 8 9 11 10 10 11 11 10 11 11 10 10 11 11 12
5 5 2 3 3 7 6 9 3 3 1 2 4 5 7 6 5 7 12 9 8 8 8 8 12 12 10 7 7 8 9 9 7 8 8 10 10 10 10 10 9 11 10 10
3 3 1 2 3 2 3 4 1 2 3 4 4 3 5 6 6 6 7 7 7 6 7 7 11 13 9 8 8 7 7 8 7 7 7 9 9 8 8 9 10 10 11 11
2 4 2 5 6 11 4 3 4 3 3 4 0 4 4 4 6 8 7 8 8 8 8 8 14 15 14 11 9 8 7 7 7 7 7 8 8 8 8 10 10 11 11 13
5 3 4 4 2 3 6 4 4 3 3 3 3 5 6 6 7 8 7 7 7 8 9 8 17 20 18 15 13 11 9 8 7 6 7 8 8 8 9 10 11 11 13 14
7 4 2 2 3 4 6 7 5 3 2 5 4 4 4 7 5 4 5 4 4 6 8 7 12 16 19 18 17 14 12 9 8 7 8 8 8 8 10 10 11 12 14 14
7 3 4 7 3 5 7 11 11 9 4 7 10 7 13 12 2 4 5 4 9 10 11 8 9 17 23 24 21 18 15 12 11 10 9 9 8 9 10 11 12 14 15 15
8 3 8 2 3 2 3 6 8 9 7 8 2 8 7 8 11 11 7 6 8 9 8 11 12 14 22 25 25 21 17 15 14 12 11 10 10 10 11 12 13 14 14 15
1 2 3 3 5 4 4 6 4 4 5 6 9 15 9 10 6 8 11 11 12 9 10 11 10 15 22 27 27 25 21 17 15 14 12 11 11 11 11 12 14 14 14 15
6 5 3 5 2 3 6 8 10 8 6 6 10 15 10 12 12 8 9 9 10 11 10 10 11 21 23 28 31 28 22 19 16 14 12 12 12 12 11 13 14 15 14 13
6 6 3 3 4 3 5 6 12 15 14 12 11 14 17 13 10 8 7 9 12 8 8 8 13 15 21 27 28 27 24 20 17 15 14 13 13 12 12 11 13 13 12 11
4 5 3 5 4 6 6 3 6 7 10 8 15 16 11 8 6 7 3 2 2 6 9 11 8 17 22 27 29 28 24 20 18 16 14 14 13 12 12 11 11 11 11 10
3 4 4 3 5 9 3 12 8 2 17 14 12 12 9 5 7 5 4 3 1 4 5 6 12 20 26 26 26 24 21 19 17 14 14 14 13 12 12 12 11 11 10 10
4 2 6 4 4 7 6 9 8 8 14 7 6 7 5 7 9 1 6 3 4 4 8 12 15 19 22 23 21 20 20 16 16 15 15 14 13 12 12 12 13 12 11 11
8 8 5 4 4 11 9 1 13 12 4 5 5 6 7 9 4 6 7 7 9 11 12 15 19 19 18 19 20 19 17 15 16 15 14 15 13 11 11 11 11 12 11 10
2 7 6 9 8 5 6 7 8 3 7 5 4 6 8 8 8 7 7 7 8 12 14 14 18 19 16 17 18 21 19 19 19 18 15 13 14 14 12 11 10 10 9 8
4 3 3 4 8 10 7 7 6 7 9 6 7 6 6 7 6 7 6 7 8 12 14 16 17 16 16 16 17 20 21 19 18 17 15 13 14 14 13 10 9 9 9 9
6 5 7 5 12 5 12 10 8 9 10 6 4 6 8 7 8 7 7 8 12 14 16 18 19 18 18 19 19 20 20 22 20 17 15 13 12 12 12 9 8 10 9 8
7 12 7 10 10 11 16 9 6 8 10 10 7 4 4 6 7 5 6 14 17 17 19 17 18 22 22 22 21 21 20 20 21 19 16 14 14 12 11 12 13 7 6 6
Wind_Direction
216 116 196 220 210 166 101 163 231 130 229 122 247 263 254 275 253 243 241 240 238 240 107 97 88 79 69 48 31 17 356 349 337 317 323 270 257 191 139 160 120 119 136 139
138 233 225 217 231 251 220 6 278 58 166 145 279 271 255 243 243 227 231 229 226 114 95 84 79 69 61 53 42 34 29 23 24 21 54 86 131 104 96 88 89 88 82 73
157 223 205 208 179 179 188 194 258 66 357 311 328 293 298 258 237 238 227 211 151 138 125 100 77 69 61 54 46 40 35 37 38 52 103 125 106 93 87 81 84 71 62 52
221 250 170 196 175 134 199 235 237 13 63 231 91 286 306 276 201 182 167 115 111 111 100 98 86 72 67 63 60 52 48 50 50 65 86 102 103 92 91 94 85 70 54 50
210 180 177 166 174 161 242 143 177 153 210 354 259 196 273 239 243 193 124 122 119 116 110 93 91 90 80 72 67 62 59 60 60 71 81 92 95 100 101 95 87 67 58 56
178 282 148 154 145 173 144 78 63 71 90 293 214 173 267 240 198 113 120 131 117 110 102 101 107 105 92 87 79 75 70 63 66 76 81 84 91 95 97 89 84 71 61 54
136 175 97 111 116 110 127 119 136 231 226 230 335 168 248 250 135 150 155 144 137 128 126 130 128 117 104 94 93 85 81 72 68 78 83 84 87 90 89 84 80 73 58 48
160 189 173 179 169 170 179 176 170 199 205 260 294 229 253 217 163 120 145 135 134 134 139 144 146 136 128 123 112 104 94 88 82 82 84 89 89 86 84 81 77 72 65 52
148 197 87 141 132 135 186 216 215 102 11 80 224 290 320 280 98 110 127 134 146 150 153 153 146 141 148 155 135 130 121 109 102 96 94 88 87 84 79 76 73 67 66 60
161 108 318 150 107 171 165 166 146 355 169 237 280 237 231 327 209 141 144 153 168 167 152 159 152 155 164 168 154 147 142 131 121 114 105 94 87 84 78 74 69 66 66 67
162 113 181 128 202 190 153 215 226 151 163 177 225 261 217 101 102 159 171 178 174 177 182 179 178 179 184 180 178 166 159 149 136 127 118 111 100 91 84 77 70 68 71 70
215 118 158 169 349 205 226 207 202 143 232 229 157 261 220 140 121 121 150 167 184 190 193 187 185 182 184 185 181 182 177 169 152 142 132 116 110 102 93 85 81 77 78 78
168 147 110 64 355 329 237 220 232 270 73 205 171 270 336 97 99 109 148 189 187 195 204 194 188 192 194 194 192 187 181 171 161 158 142 126 115 106 99 92 91 88 85 80
104 158 190 206 204 152 189 206 218 212 208 240 233 283 294 303 345 332 336 189 203 211 211 196 202 202 200 201 194 188 182 177 169 166 149 128 115 109 105 103 98 96 90 81
141 151 185 195 148 118 176 195 199 213 223 240 220 261 252 279 288 288 275 270 236 232 214 210 215 204 198 197 193 188 185 176 176 166 148 134 128 121 115 108 101 98 94 87
130 199 114 328 155 179 223 233 219 214 235 254 242 260 255 260 276 254 263 270 275 257 231 228 221 204 194 192 185 183 178 172 177 166 152 146 139 129 119 115 109 106 99 91
147 128 94 245 348 51 318 206 215 228 215 215 250 258 268 263 255 259 265 263 254 262 259 225 219 212 202 187 181 176 171 168 168 163 155 150 142 131 124 122 116 108 99 96
136 117 101 204 43 293 234 215 197 213 233 239 258 257 256 262 258 256 258 259 277 292 279 269 238 202 187 181 177 172 166 165 163 160 155 153 147 138 132 122 114 108 105 96
105 121 138 165 202 300 285 261 173 173 247 213 240 261 270 270 304 277 219 35 337 311 321 317 250 178 163 163 164 161 158 164 165 160 156 152 147 139 132 125 119 110 110 103
130 106 137 124 174 214 229 211 208 90 269 223 240 254 260 313 291 278 181 173 108 40 38 83 130 144 152 152 159 159 157 163 159 161 156 154 149 142 139 130 128 118 110 113
142 95 189 187 228 275 230 164 142 162 262 212 189 227 229 250 255 234 140 150 159 148 133 136 138 138 149 156 163 156 156 150 163 161 155 147 142 142 138 132 127 123 111 106
164 169 193 160 223 265 193 112 193 221 269 234 249 238 244 253 249 197 194 177 164 146 146 153 139 143 154 162 164 145 147 158 156 152 150 144 138 134 134 130 126 122 119 113
221 186 183 185 209 214 183 197 235 208 228 243 221 245 213 223 223 203 208 179 171 163 157 160 152 144 154 162 173 157 160 161 158 153 148 148 147 141 138 139 135 118 119 116
271 159 204 82 258 230 216 257 244 229 231 234 241 240 193 231 233 234 189 169 158 154 153 163 156 143 142 166 167 165 157 159 158 150 149 151 148 141 142 137 133 125 112 113
202 131 210 262 270 319 268 233 227 230 235 239 191 198 212 218 241 223 185 167 160 154 158 172 162 152 151 162 161 160 159 159 160 155 155 154 149 143 140 139 131 124 97 86
191 222 205 236 243 237 257 254 187 202 221 224 209 224 200 196 223 174 165 158 156 158 162 161 159 159 164 165 162 160 162 166 164 160 163 162 157 153 151 147 135 115 105 99
Height
820 830 836 831 827 822 825 830 833 827 823 825 830 830 827 819 819 820 817 815 813 812 817 817 817 818 817 818 818 819 818 818 817 816 815 816 817 817 818 819 820 820 821 821
826 833 826 823 824 825 823 829 829 823 826 826 830 826 818 812 808 805 807 808 808 812 818 820 818 818 818 819 820 821 820 818 817 816 816 816 816 817 818 819 820 820 820 821
826 820 816 821 822 827 827 832 831 831 827 825 830 832 814 800 797 798 799 799 802 809 816 820 820 821 821 822 824 823 821 819 818 816 814 815 815 817 819 820 820 821 821 822
822 813 818 821 824 825 834 825 827 829 838 848 832 850 819 801 796 795 796 806 810 813 820 821 820 822 825 826 826 825 823 821 820 818 815 814 815 817 821 822 822 822 822 822
819 816 817 823 823 824 830 822 828 830 838 842 838 850 823 805 800 798 803 809 813 815 818 822 823 826 828 829 828 827 825 823 823 821 819 818 819 820 822 823 822 823 824 824
817 815 813 816 818 821 823 828 829 833 844 873 837 839 827 808 794 795 807 810 813 818 820 823 826 828 829 830 830 828 826 826 825 824 823 822 823 823 823 823 823 824 824 824
820 819 817 814 822 822 826 837 854 855 858 846 823 834 818 796 790 794 803 811 815 818 820 824 828 829 830 831 831 829 827 827 827 826 826 826 825 825 824 824 824 824 824 823
818 827 819 815 817 823 829 833 852 851 850 839 828 827 807 792 791 790 796 805 813 817 819 824 826 827 828 831 830 828 828 828 828 827 828 827 827 826 826 826 826 825 825 825
813 814 813 813 810 817 828 830 826 839 868 851 834 815 799 791 802 801 805 811 816 818 820 823 824 826 828 831 829 828 828 829 829 828 828 828 827 827 827 827 827 826 825 825
799 820 815 815 812 814 819 822 838 854 865 856 831 818 815 802 797 804 810 814 816 818 821 822 823 824 827 830 829 828 828 828 828 829 828 828 828 828 828 827 827 827 826 826
796 805 822 814 815 813 821 824 823 825 841 838 842 821 801 802 799 802 807 809 813 816 817 818 819 820 823 825 827 828 828 828 828 827 828 827 828 827 827 827 828 827 827 827
796 802 820 812 815 809 811 817 819 840 833 841 835 829 796 797 798 799 803 804 810 811 812 814 815 816 819 822 823 824 826 827 827 827 827 827 827 827 828 828 827 827 827 827
794 811 830 829 827 820 815 812 813 816 823 822 832 823 797 799 798 800 803 806 810 812 812 812 815 816 816 818 820 821 822 824 826 827 827 827 827 827 827 828 828 827 827 827
792 810 806 803 805 807 815 809 811 814 839 816 812 816 802 798 801 801 805 804 808 806 804 807 809 809 810 813 815 817 818 820 822 824 825 825 827 828 828 828 828 827 826 828
798 809 802 799 799 799 803 806 810 814 813 816 812 814 808 804 803 802 800 799 799 800 801 801 801 802 804 808 810 812 815 817 819 821 823 825 827 828 828 828 827 827 827 826
793 807 800 820 803 803 808 809 808 810 809 813 812 807 801 797 800 799 795 794 792 793 793 792 793 795 797 799 804 808 812 815 818 820 822 824 826 827 827 827 827 828 827 827
793 810 833 844 816 819 840 823 809 804 802 803 808 796 795 794 791 793 792 791 789 786 784 785 784 784 787 791 796 802 808 813 817 820 823 824 825 825 827 828 827 827 829 829
796 807 824 856 853 858 803 795 791 797 794 795 795 791 785 787 787 787 788 787 783 783 781 779 778 779 783 787 793 799 805 810 815 818 821 824 824 826 827 828 827 826 828 831
791 806 834 828 881 820 799 794 796 796 791 793 789 781 782 785 787 785 783 785 786 785 782 777 774 777 782 787 792 798 803 808 813 816 819 822 824 826 827 827 828 828 829 831
795 796 816 856 850 845 792 782 781 787 787 781 778 781 784 784 788 782 783 785 786 784 783 781 780 780 783 789 794 799 804 808 812 816 819 821 823 824 826 827 828 829 830 831
813 819 817 836 834 817 789 781 782 810 770 772 773 776 778 778 775 775 781 784 784 784 783 783 784 785 787 791 795 800 805 809 813 816 819 820 822 825 826 827 828 829 832 833
800 805 819 818 819 807 775 779 781 765 764 768 772 774 776 775 773 776 779 781 782 781 783 783 783 787 790 793 795 801 806 810 813 816 819 820 822 825 828 829 830 830 830 834
796 786 801 791 784 768 770 766 764 764 767 767 765 766 768 769 769 770 773 777 779 780 783 785 786 789 792 794 797 800 803 809 812 815 819 822 822 823 827 829 831 830 830 832
782 784 787 788 766 764 766 764 762 761 761 760 761 762 764 765 766 766 769 773 777 780 782 784 787 791 793 796 797 800 804 809 814 815 819 823 824 823 825 829 830 830 831 833
774 780 777 779 761 764 756 756 755 756 755 755 756 758 759 761 762 763 765 769 773 776 780 783 785 789 792 795 798 801 804 806 813 816 820 823 825 824 826 829 830 830 831 831
762 756 763 754 751 748 741 742 746 750 749 747 751 754 754 755 756 757 761 764 769 773 777 780 783 787 791 795 798 800 804 809 812 815 819 822 823 824 826 828 829 831 830 832